[[{"header":{"parameterUnit":"m.s-1","parameterCategory":1,"la1":30.2991,"la2":30.254,"lo1":-89.0895,"lo2":-89.0444,"dy":0.0017,"dx":0.0017,"nx":28,"ny":28,"refTime":"2024-09-03T09:00:00:Z","depth":0,"parameterNumber":2,"parameterNumberName":"U-component_of_WINDS"},"data":[0,0,0,0,0,0,0,0,0,0,0,0,0,0,0,0,0,0,0,0,0,0,0,0,0,0,0,0,0,0,0,0,0,0,0,0,0,0,0,0,0,0,0,0,0,0,0,0,0,0,0,0,0,0,0,0,0,0,-8.0589,-8.0588,0,-8.0489,-8.0488,-8.0487,-8.0266,-8.0262,-8.0257,-8.0253,-8.0155,-8.0157,-8.0158,0,0,0,0,0,0,0,0,0,0,0,0,0,-8.0595,-8.0596,-8.059,-8.0588,-8.0587,-8.0489,-8.0488,-8.0487,-8.0267,-8.0261,-8.0256,-8.0251,-8.0155,-8.0157,-8.0158,0,0,0,0,0,0,0,0,0,0,0,0,0,-8.0554,-8.0597,-8.059,-8.0465,-8.0453,-8.049,-8.0488,-8.0486,-8.0268,-8.0261,-8.0254,-8.0248,-8.0154,-8.0156,-8.0159,-8.0309,0,0,-8.0166,-8.0167,0,0,0,0,0,0,0,0,-8.0557,-8.0554,-8.0485,-8.0474,-8.0461,-8.0383,-8.0454,-8.0427,-8.027,-8.0339,-8.0253,-8.0245,-8.0237,-8.0232,-8.0228,-8.0305,-8.0301,-8.0166,-8.0168,-8.0169,-8.017,0,0,0,0,0,0,0,-8.056,-8.0557,-8.055,-8.0484,-8.0469,-8.0416,-8.0403,-8.0448,-8.0327,-8.0332,-8.0316,-8.0307,-8.0229,-8.0227,-8.0224,-8.0299,-8.0166,-8.0168,-8.017,-8.0171,-8.0492,-8.0499,0,0,0,0,0,0,-8.058,-8.0561,-8.0553,-8.0547,-8.0493,-8.0422,-8.0407,-8.0415,-8.0326,-8.0306,-8.0313,-8.0297,-8.0226,-8.0222,-8.022,-8.0388,-8.0169,-8.0171,-8.0173,-8.0485,-8.0494,-8.0502,0,0,0,0,0,0,-8.0581,-8.0581,-8.0557,-8.0549,-8.0542,-8.0429,-8.044,-8.0417,-8.0413,-8.0311,-8.0289,-8.0332,-8.022,-8.0217,-8.0288,-8.0381,-8.0172,-8.0174,-8.0477,-8.0488,-8.0498,-8.0727,0,0,0,0,0,0,-8.0582,-8.0583,-8.0638,-8.0552,-8.0544,-8.0626,-8.0446,-8.0419,-8.0418,-8.0396,-8.0323,-8.0305,-8.0215,-8.0286,-8.0291,-8.0381,-8.0176,-8.0468,-8.0482,-8.0494,-8.071,-8.0744,-8.0773,0,0,0,0,0,-8.0583,-8.0708,-8.0642,-8.0642,-8.061,-8.0632,-8.0627,-8.0519,-8.0426,-8.0481,-8.0415,-8.0307,-8.0372,-8.0295,-8.0298,-8.0391,-8.0462,-8.0478,-8.0493,-8.0696,-8.0738,-8.0772,0,0,0,0,0,0,-8.0809,-8.0694,-8.062,-8.072,-8.0688,-8.0594,-8.066,-8.0566,-8.056,-8.054,-8.0408,-8.0394,-8.0483,-8.0444,-8.0361,-8.0531,-8.0399,-8.0417,-8.0552,-8.059,-8.0621,-8.0627,-8.0178,0,0,0,0,0,-8.0871,-8.0897,-8.0796,-8.0895,-8.0882,-8.0775,-8.078,-8.07,-8.0661,-8.0646,-8.0585,-8.0553,-8.0565,-8.0576,-8.0582,-8.0705,-8.0685,-8.0771,-8.0802,-8.0828,-8.0844,-8.0904,-8.094,-8.0554,-8.0554,-8.0554,0,0,-8.0998,-8.0939,-8.0964,-8.0939,-8.0903,-8.0934,-8.0764,-8.0805,-8.0826,-8.0653,-8.0714,-8.067,-8.0625,-8.0722,-8.0762,-8.0693,-8.0947,-8.0849,-8.087,-8.0871,-8.0924,-8.0961,-8.0993,-8.0565,-8.0563,-8.0561,0,0,-8.1245,-8.1204,-8.128,-8.1248,-8.1196,-8.1124,-8.1143,-8.1065,-8.1027,-8.1088,-8.0958,-8.0983,-8.1008,-8.098,-8.097,-8.1208,-8.1107,-8.1214,-8.1376,-8.1436,-8.1466,-8.1492,-8.1574,-8.1606,-8.1231,-8.1231,-8.1232,0,-8.141,-8.1449,-8.1332,-8.1379,-8.1372,-8.1216,-8.1292,-8.1268,-8.1222,-8.1221,-8.1145,-8.1171,-8.113,-8.1218,-8.1276,-8.1274,-8.129,-8.122,-8.1471,-8.1496,-8.1519,-8.1596,-8.1627,-8.1244,-8.1243,-8.1241,-8.124,0,-8.1654,-8.1684,-8.1752,-8.1709,-8.1709,-8.1772,-8.1665,-8.168,-8.1601,-8.1538,-8.1601,-8.1547,-8.1538,-8.1554,-8.1478,-8.163,-8.1589,-8.1495,-8.1358,-8.1571,-8.164,-8.1669,-8.1263,-8.1258,-8.1254,-8.1251,0,0,-8.2037,-8.1929,-8.1955,-8.1933,-8.1865,-8.1887,-8.1943,-8.1932,-8.1947,-8.1923,-8.1965,-8.199,-8.1901,-8.189,-8.181,-8.1863,-8.2051,-8.1761,-8.1757,-8.1814,-8.2214,-8.2283,-8.2319,-8.1986,-8.1991,-8.1996,-8.2216,0,-8.2266,-8.2352,-8.2248,-8.2357,-8.2383,-8.2236,-8.2284,-8.2249,-8.2192,-8.2206,-8.2144,-8.2162,-8.2045,-8.2037,-8.2083,-8.2019,-8.2129,-8.2002,-8.2024,-8.2026,-8.2035,-8.2356,-8.2429,-8.264,-8.2243,-8.2248,-8.2251,0,-8.2542,-8.2528,-8.2639,-8.2563,-8.257,-8.2615,-8.2596,-8.2613,-8.257,-8.2524,-8.2512,-8.2415,-8.2465,-8.2336,-8.2403,-8.2318,-8.2322,-8.2292,-8.2297,-8.2292,-8.2149,-8.2356,-8.2704,-8.2735,-8.2294,-8.229,-8.2287,0,-8.2807,-8.2816,-8.2883,-8.2869,-8.2783,-8.2818,-8.2784,-8.2734,-8.2735,-8.272,-8.2718,-8.2712,-8.2707,-8.2704,-8.2608,-8.2523,-8.2686,-8.2549,-8.2649,-8.2651,-8.2686,-8.2685,-8.3037,-8.2696,-8.2695,-8.2695,-8.2694,0,-8.3071,-8.3144,-8.3,-8.3041,-8.3119,-8.3001,-8.3081,-8.3033,-8.299,-8.3019,-8.2894,-8.2925,-8.2797,-8.2815,-8.2741,-8.2806,-8.2806,-8.277,-8.2749,-8.2779,-8.2784,-8.2777,-8.2759,-8.2703,-8.2701,-8.27,-8.2698,0,-8.3378,-8.3285,-8.3348,-8.3261,-8.3241,-8.3302,-8.3228,-8.3263,-8.3198,-8.3237,-8.324,-8.3139,-8.3152,-8.3057,-8.3055,-8.3004,-8.3104,-8.306,-8.3118,-8.3103,-8.3207,-8.3197,-8.3564,-8.3605,-8.3242,-8.3245,-8.3248,0,-8.3551,-8.3603,-8.3522,-8.3531,-8.3503,-8.3522,-8.352,-8.3407,-8.3411,-8.3366,-8.3407,-8.341,-8.3406,-8.3435,-8.3362,-8.3359,-8.3311,-8.344,-8.331,-8.3338,-8.3309,-8.3306,-8.3309,-8.3467,-8.3471,-8.3475,-8.3478,0,-8.3866,-8.3817,-8.3819,-8.3807,-8.3808,-8.3793,-8.377,-8.3786,-8.3662,-8.3674,-8.3685,-8.3683,-8.3678,-8.3683,-8.3665,-8.3631,-8.3534,-8.352,-8.3542,-8.3572,-8.3602,-8.3584,-8.3188,-8.3511,-8.3508,-8.3505,-8.3504,-8.3502,-8.4108,-8.4147,-8.4096,-8.4103,-8.4073,-8.4054,-8.4081,-8.402,-8.4027,-8.4013,-8.3947,-8.397,-8.3926,-8.3891,-8.3867,-8.3884,-8.3822,-8.3855,-8.3863,-8.3872,-8.3889,-8.3603,-8.3881,-8.388,-8.3879,-8.3878,-8.3877,0,-8.4414,-8.4374,-8.4381,-8.4351,-8.4357,-8.4265,-8.4235,-8.4245,-8.4267,-8.4233,-8.4232,-8.4245,-8.4249,-8.4176,-8.4171,-8.4198,-8.4154,-8.4201,-8.4196,-8.4189,-8.3947,-8.3926,-8.4237,-8.4236,-8.4236,-8.4236,-8.4236,-8.4236,-8.4574,-8.4634,-8.4579,-8.4624,-8.4583,-8.4603,-8.4593,-8.4575,-8.4547,-8.4567,-8.4568,-8.4521,-8.4471,-8.4461,-8.4461,-8.4439,-8.4442,-8.4503,-8.4467,-8.4241,-8.4206,-8.4173,-8.4153,-8.4506,-8.4506,-8.4707,-8.4709,-8.471]},{"header":{"parameterUnit":"m.s-1","parameterCategory":1,"la1":30.2991,"la2":30.254,"lo1":-89.0895,"lo2":-89.0444,"dy":0.0017,"dx":0.0017,"nx":28,"ny":28,"refTime":"2024-09-03T09:00:00:Z","depth":0,"parameterNumber":3,"parameterNumberName":"V-component_of_WINDS"},"data":[0,0,0,0,0,0,0,0,0,0,0,0,0,0,0,0,0,0,0,0,0,0,0,0,0,0,0,0,0,0,0,0,0,0,0,0,0,0,0,0,0,0,0,0,0,0,0,0,0,0,0,0,0,0,0,0,0,0,1.2749,1.2751,0,1.2948,1.295,1.2953,1.2977,1.2975,1.2973,1.2971,1.3174,1.3181,1.3188,0,0,0,0,0,0,0,0,0,0,0,0,0,1.2393,1.2399,1.2749,1.2752,1.2754,1.2948,1.295,1.2953,1.2977,1.2975,1.2973,1.297,1.3172,1.318,1.3189,0,0,0,0,0,0,0,0,0,0,0,0,0,1.2565,1.2401,1.2749,1.2789,1.2795,1.2947,1.2951,1.2954,1.2978,1.2975,1.2972,1.2969,1.3169,1.3179,1.319,1.3315,0,0,1.3223,1.3228,0,0,0,0,0,0,0,0,1.2555,1.2578,1.2781,1.2787,1.2793,1.2935,1.2899,1.3075,1.2979,1.2908,1.2971,1.2968,1.3097,1.3113,1.3157,1.3324,1.3333,1.3224,1.3231,1.3235,1.3238,0,0,0,0,0,0,0,1.2543,1.257,1.2828,1.2784,1.2792,1.2799,1.282,1.2933,1.3016,1.2914,1.2917,1.294,1.31,1.3146,1.3162,1.3336,1.3224,1.3233,1.324,1.3244,1.3622,1.3626,0,0,0,0,0,0,1.2524,1.256,1.2821,1.2834,1.2665,1.2807,1.2831,1.2892,1.3015,1.3031,1.2942,1.294,1.3129,1.3149,1.3169,1.3328,1.3235,1.3245,1.3252,1.3619,1.3623,1.3627,0,0,0,0,0,0,1.2516,1.2547,1.2813,1.2698,1.2732,1.2817,1.2885,1.2898,1.2945,1.3036,1.3051,1.2974,1.3128,1.3154,1.328,1.3335,1.325,1.326,1.3615,1.362,1.3625,1.3644,0,0,0,0,0,0,1.2506,1.2544,1.2591,1.2698,1.2738,1.292,1.2888,1.2904,1.2963,1.2963,1.3071,1.3086,1.3128,1.3264,1.3291,1.3349,1.3268,1.361,1.3617,1.3623,1.3638,1.3649,1.3658,0,0,0,0,0,1.2493,1.2587,1.2593,1.2625,1.2799,1.2923,1.2946,1.2992,1.2967,1.3017,1.3077,1.3082,1.3324,1.3276,1.3307,1.3369,1.3607,1.3615,1.3623,1.3634,1.3647,1.3658,0,0,0,0,0,0,1.2482,1.2601,1.261,1.2741,1.2822,1.2927,1.299,1.3003,1.3092,1.3088,1.3142,1.3166,1.3291,1.3342,1.3287,1.3499,1.3464,1.3478,1.3461,1.3474,1.3484,1.347,1.3277,0,0,0,0,0,1.2495,1.2586,1.2685,1.2792,1.2832,1.2904,1.296,1.2989,1.3075,1.3109,1.3178,1.3261,1.3356,1.3418,1.351,1.3646,1.3672,1.3704,1.3713,1.3721,1.3733,1.3814,1.3831,1.3653,1.3653,1.3653,0,0,1.2523,1.2599,1.2653,1.2792,1.2858,1.2952,1.2933,1.3032,1.3103,1.3124,1.3249,1.3302,1.3399,1.3532,1.3593,1.3578,1.3788,1.3731,1.3736,1.3745,1.3824,1.3841,1.3856,1.3659,1.3658,1.3657,0,0,1.2622,1.2688,1.2786,1.2854,1.2955,1.3004,1.3027,1.3132,1.3169,1.3295,1.3314,1.34,1.3561,1.3631,1.3687,1.3819,1.3829,1.3847,1.3899,1.3977,1.3991,1.4004,1.4055,1.4072,1.3859,1.3859,1.3859,0,1.2644,1.2787,1.2835,1.2936,1.2998,1.3023,1.3125,1.3188,1.3314,1.3357,1.3338,1.3546,1.3612,1.3764,1.3797,1.384,1.3871,1.3836,1.3985,1.3998,1.4011,1.406,1.4079,1.3861,1.3861,1.3861,1.3861,0,1.2811,1.291,1.2977,1.3101,1.3171,1.3271,1.3336,1.3401,1.3426,1.3477,1.3607,1.3688,1.38,1.3838,1.3861,1.3995,1.3983,1.3974,1.3939,1.4029,1.4076,1.4095,1.3864,1.3863,1.3863,1.3862,0,0,1.2907,1.306,1.3084,1.3143,1.3259,1.3337,1.344,1.3551,1.3608,1.3694,1.3784,1.3923,1.3917,1.3981,1.4013,1.4081,1.4186,1.4064,1.4068,1.4087,1.4344,1.4352,1.4373,1.4193,1.4197,1.4199,1.4337,0,1.3023,1.3208,1.3258,1.3416,1.351,1.3538,1.3628,1.371,1.3761,1.385,1.3906,1.4006,1.3987,1.4027,1.4096,1.4158,1.4239,1.4149,1.428,1.4284,1.4258,1.4397,1.4405,1.4531,1.4355,1.4359,1.4361,0,1.3182,1.3276,1.3444,1.3553,1.3594,1.3675,1.3783,1.3866,1.3961,1.3994,1.4068,1.4095,1.4206,1.4165,1.4321,1.4259,1.4315,1.4355,1.4361,1.4377,1.4329,1.442,1.4572,1.4592,1.439,1.4387,1.4385,0,1.3241,1.3408,1.3533,1.3581,1.371,1.3767,1.3823,1.3915,1.398,1.4075,1.4118,1.4223,1.4282,1.4364,1.4419,1.4383,1.4573,1.4534,1.4605,1.4604,1.4645,1.4642,1.4811,1.4676,1.4676,1.4676,1.4675,0,1.3367,1.347,1.3562,1.3638,1.3755,1.3812,1.3926,1.3983,1.4066,1.4156,1.4184,1.4268,1.4335,1.4428,1.4472,1.4597,1.4622,1.4653,1.4664,1.4653,1.4649,1.4692,1.4686,1.4681,1.468,1.4679,1.4678,0,1.3453,1.3518,1.3656,1.3768,1.3798,1.3881,1.3977,1.4053,1.4107,1.422,1.425,1.4334,1.4445,1.4509,1.4648,1.4678,1.4819,1.4823,1.4787,1.4793,1.4861,1.4855,1.5066,1.5098,1.4939,1.494,1.4941,0,1.353,1.3611,1.3733,1.3796,1.3854,1.3953,1.4021,1.4081,1.415,1.4267,1.4331,1.4444,1.4539,1.4716,1.479,1.4899,1.4908,1.4975,1.4925,1.4912,1.4914,1.491,1.492,1.4984,1.4986,1.4987,1.4988,0,1.3662,1.3692,1.3788,1.3899,1.398,1.4069,1.4157,1.4207,1.4281,1.4358,1.4474,1.4548,1.4693,1.4807,1.4922,1.4981,1.4998,1.5003,1.5026,1.5016,1.4993,1.5011,1.4814,1.4998,1.4997,1.4996,1.4996,1.4995,1.3749,1.3824,1.3923,1.4032,1.4105,1.4188,1.4267,1.4332,1.443,1.4554,1.4583,1.4706,1.4803,1.496,1.5022,1.512,1.5108,1.514,1.5149,1.5156,1.5161,1.4976,1.5141,1.514,1.514,1.514,1.514,0,1.3885,1.3952,1.4051,1.4176,1.4262,1.4272,1.4372,1.4444,1.4552,1.4641,1.4735,1.487,1.4982,1.5066,1.5181,1.5244,1.5255,1.5272,1.527,1.5284,1.5163,1.5134,1.5262,1.5262,1.5262,1.5262,1.5262,1.5262,1.3967,1.4096,1.4138,1.4305,1.4371,1.4493,1.455,1.4628,1.47,1.4851,1.4944,1.4999,1.5088,1.521,1.5314,1.5336,1.5379,1.5396,1.5419,1.5305,1.5292,1.5279,1.5252,1.5403,1.5404,1.5533,1.5534,1.5535]}]]